Location: Ibieca
(42.1608°N, 0.2086°W)
Time: 10:12:38
(UTC+00:00)

Daily predictions for brighter satellites

Satellite Brightness Start Highest point End
(mag) Time Altitude Azimuth Time Altitude Azimuth Time Altitude Azimuth
Cosmos 2058 Rocket 3.4 17:35:47 10° SSE 17:39:54 43° E 17:44:01 10° NNE
Cosmos 839 Rocket 4.3 17:36:02 10° NNW 17:42:06 52° NE 17:48:58 10° SE
Cosmos 1626 3.8 17:38:51 10° NNW 17:42:21 40° W 17:45:51 10° SSW
Cosmos 1470 4.4 17:38:53 10° SSW 17:42:38 40° WNW 17:46:24 10° N
Cosmos 1726 2.5 17:41:08 10° SSE 17:44:34 40° E 17:48:01 10° NNE
Lacrosse 5 rocket 2.2 17:43:54 10° NW 17:47:33 48° SW 17:51:23 10° SSE
CSL-04 Rocket 4.2 17:43:13 10° SE 17:48:15 37° ENE 17:53:16 10° N
Okean-O 2.8 17:48:18 10° SSE 17:52:43 82° WSW 17:57:11 10° NNW
Cosmos 292 Rocket 3.7 17:49:32 10° S 17:54:13 67° ESE 17:58:57 10° NNE
Cosmos 1939 Rocket 4.3 17:53:52 10° ESE 17:56:35 18° ENE 17:59:20 10° NNE
Cosmos 1328 3.9 17:53:24 10° N 17:57:17 50° E 18:01:07 10° SSE
COSMO-SKYMED 1 2.6 17:53:34 10° NNE 17:57:52 57° E 18:02:08 10° S
Cosmos 1821 Rocket 4.4 17:59:03 10° NNW 18:05:08 69° W 18:11:14 10° S
Cosmos 1605 Rocket 4.1 17:59:42 10° N 18:05:42 50° ENE 18:11:36 10° SSE
ASTEX 1 3.4 18:00:48 10° N 18:05:46 73° E 18:10:45 10° S
Cosmos 1953 Rocket 4.0 18:02:50 10° NNW 18:07:10 65° W 18:11:26 10° S
Cosmos 1833 Rocket 3.2 18:02:46 10° N 18:07:59 37° ENE 18:13:09 10° SE
Cosmos 1461 3.9 18:05:01 10° NNW 18:08:33 27° NE 18:11:01 16° E
Cosmos 1271 Rocket 4.1 18:06:12 10° NNW 18:10:01 45° W 18:13:51 10° SSW
Meteor 2-10 3.9 18:06:01 10° S 18:11:05 81° E 18:16:09 10° NNE
Envisat 3.1 18:07:27 10° SSE 18:12:32 85° WSW 18:17:38 10° NNW
Cosmos 1934 Rocket 4.0 18:06:12 10° N 18:12:35 86° E 18:18:57 10° S
OAO 3 Rocket 4.4 18:09:16 10° WSW 18:13:43 35° S 18:17:42 13° ESE
Cosmos 1727 Rocket 4.3 18:08:27 10° SSE 18:14:07 40° E 18:19:48 10° NNE
ATLAS 3B R/B 3.9 18:11:39 10° SE 18:15:42 17° ESE 18:16:55 16° E
CZ-2D R/B 4.0 18:13:36 10° SE 18:17:00 31° ENE 18:20:27 10° N
Cosmos 482 Debris 4.4 18:11:57 10° WNW 18:17:03 68° SW 18:19:44 13° SE
Unknown 3.0 18:14:55 10° WNW 18:17:32 56° SW 18:19:34 15° SE
YAOGAN 6 2.5 18:14:31 10° SSE 18:18:10 79° ENE 18:21:49 10° N
Cosmos 1356 4.0 18:16:43 10° SSW 18:20:06 61° W 18:23:31 10° N
CZ-4 R/B 1.5 18:19:06 10° SSE 18:23:15 88° WSW 18:27:30 10° NNW
Cosmos 1300 3.7 18:20:09 10° SE 18:23:17 24° E 18:24:44 19° NE
CENTAUR R/B 3.6 18:21:43 10° SSE 18:25:42 19° ESE 18:26:01 19° ESE
Lacrosse 5 2.7 18:22:57 10° NW 18:27:36 35° NNE 18:29:56 23° E
Abrixas rocket 2.4 18:26:02 10° WSW 18:29:03 58° NNW 18:30:26 28° NE
CSL-04 Debris 4.2 18:28:22 10° SSE 18:33:49 89° ENE 18:39:20 10° NNW
Cosmos 2082 Rocket 2.6 18:29:07 10° NNW 18:34:32 42° ENE 18:37:44 22° ESE
BREEZE M DEB (TANK) 2.3 18:33:21 10° NW 18:35:52 70° NNE 18:38:41 25° ESE
Cosmos 1812 Rocket 3.7 18:31:50 10° SSE 18:36:06 50° E 18:40:26 10° NNE
DMSP B5D1-3 4.5 18:31:02 10° NNE 18:36:08 61° ESE 18:41:13 10° S
Cosmos 1076 Rocket 4.0 18:34:06 10° N 18:38:11 37° ENE 18:39:44 28° ESE
Cosmos 1703 4.0 18:34:48 10° NNW 18:38:39 55° W 18:42:28 10° S
USA 238 DEB 3.6 18:37:19 10° SSW 18:43:57 72° ESE 18:50:49 10° NE
USA 238 3.6 18:37:26 10° SSW 18:44:04 71° ESE 18:50:55 10° NE
COSMOS 2406 4.0 18:39:40 10° NNW 18:45:17 55° WSW 18:50:50 10° S
Unknown 2.7 18:42:41 10° NW 18:45:49 89° NNE 18:46:15 64° SE
Unknown 4.4 18:42:51 10° NW 18:45:55 27° NNE 18:46:02 27° NNE
YAOGAN 1 2.9 18:41:47 10° S 18:46:05 66° W 18:50:23 10° NNW
Cosmos 2100 Rocket 4.2 18:43:01 10° N 18:48:55 44° ENE 18:53:07 18° SE
Gbstr 26 Del rocket 4.1 18:45:43 10° NW 18:51:55 68° NNE 18:55:35 31° ESE
Ariane Rocket 2.9 18:50:05 10° SSE 18:55:08 68° ENE 19:00:14 10° N
Shenzhou-11 Module 2.7 18:56:19 10° W 18:58:27 46° W 18:58:27 46° W
EO 1 Delta rocket 4.5 18:55:39 10° S 19:00:10 57° W 19:04:58 10° NNW
In-Cosmos 22 Rocket 4.4 18:55:30 10° N 19:00:39 43° ENE 19:01:10 42° E
STPSAT 2 (USA 217) 4.5 18:56:04 10° NNW 19:00:41 79° ENE 19:02:23 38° SSE
Cosmos 1153 Rocket 4.4 18:56:53 10° N 19:03:03 90° WNW 19:09:12 10° S
Cosmos 2058 3.5 19:02:08 10° N 19:05:13 41° NNE 19:05:13 41° NNE
NOSS 3-2 (A) 3.2 19:02:43 10° SSW 19:08:25 86° SE 19:13:02 20° NE
Cosmos 2016 Rocket 4.3 19:03:06 10° N 19:09:01 41° ENE 19:09:07 41° ENE
Cosmos 2278 Rocket 3.2 19:07:46 10° SW 19:13:13 46° WNW 19:18:40 10° NNE
Cosmos 2297 3.6 19:09:00 10° S 19:14:34 60° ESE 19:15:56 47° ENE
NOSS 3-3 (A) 4.5 19:10:36 10° NNW 19:18:11 74° NE 19:21:38 39° SE
NOSS 3-3 (C) 4.5 19:10:42 10° NNW 19:18:17 73° NE 19:21:41 39° SE
MOS 1 4.1 19:24:06 43° SSE 19:26:05 84° ENE 19:31:46 10° NNW
SPOT 3 Rocket 4.3 19:27:56 38° NNE 19:27:56 38° NNE 19:31:27 10° N
BREEZE-M DEB (TANK) 2.9 19:18:42 10° WSW 19:27:41 64° NNW 19:28:04 61° N
Cosmos 1939 Rocket 4.3 19:28:06 13° SSW 19:31:13 36° W 19:34:59 10° NNW
NOSS 3-2 (C) 3.2 19:27:08 10° SSW 19:32:51 83° ESE 19:34:07 58° NE
IRS-1A Rocket 4.5 19:28:34 16° S 19:32:55 66° WSW 19:38:25 10° NNW
Cosmos 2061 Rocket 3.8 19:27:48 10° N 19:34:02 67° E 19:34:04 67° E
Cosmos 44 3.8 19:29:50 10° SSW 19:33:35 51° SSW 19:33:35 51° SSW
SJ 16-02 3.6 19:31:30 10° N 19:32:27 16° N 19:32:27 16° N
ARGOS 4.2 19:42:35 33° NNE 19:42:35 33° NNE 19:45:41 10° N
H-2A R/B 3.1 19:45:14 36° N 19:45:14 36° N 19:48:30 10° N
Cosmos 1459 Rocket 4.1 19:38:08 10° N 19:44:20 75° W 19:47:27 32° S
ADEOS Rocket 3.3 19:37:37 10° NNE 19:45:18 70° E 19:52:20 10° S
Cosmos 1461 4.5 19:43:57 10° NW 19:47:28 31° WSW 19:47:28 31° WSW
Cosmos 1833 Rocket 4.2 19:46:51 10° NW 19:51:47 32° WSW 19:55:41 15° SSW
Cosmos 1898 Rocket 4.5 19:57:44 10° NNW 20:01:14 42° NNW 20:01:14 42° NNW
ATLAS 3B R/B 2.8 19:58:44 10° SSW 20:04:15 62° SW 20:04:15 62° SW
Lacrosse 5 3.2 20:05:50 10° NW 20:09:09 37° W 20:09:09 37° W
H-2A R/B 4.3 19:22:08 10° WSW 20:11:07 52° S 20:13:11 48° SSE
CENTAUR R/B 3.2 20:09:28 10° SW 20:13:19 44° SW 20:13:19 44° SW
Cosmos 2082 Rocket 3.8 20:13:34 10° NW 20:18:24 29° WSW 20:19:38 27° SW
